KE4BFX Weather Reports


time (UTC)temp
F
wind
direction
speed
knots
gust
knots
rain 1hr
in
rain 24hr
in
rain mn
in
humidity
%
barometer
mb
20260906012103 80 214 0.9 2.6 0.00 1.51 1.51 87 1012.5
20260906011103 81 220 1.7 2.6 0.00 1.51 1.51 87 1012.4
20260906005104 82 224 0.9 2.6 0.00 1.51 1.51 86 1012.5
20260906004104 82 224 1.7 2.6 0.00 1.51 1.51 85 1012.5
20260906003104 83 224 0.0 2.6 0.00 1.51 1.51 85 1012.4
20260906002104 83 225 1.7 2.6 0.00 1.51 1.51 84 1012.3
20260906001103 84 223 0.9 2.6 0.00 1.51 1.51 84 1012.4
20260906000104 84 223 0.9 2.6 0.00 1.51 1.51 83 1012.4
20260905235103 85 221 0.9 2.6 0.00 1.51 1.51 83 1012.4
20260905234104 85 217 0.9 2.6 0.00 1.51 1.51 82 1012.4
20260905232104 86 222 0.9 1.7 0.00 1.51 1.51 81 1012.3
20260905231103 86 222 0.9 2.6 0.00 1.51 1.51 81 1012.3
20260905230103 87 223 0.0 0.0 0.00 1.51 1.51 81 1012.4
20260905224104 87 223 0.0 2.6 0.00 1.51 1.51 80 1012.4
20260905223104 87 221 1.7 2.6 0.00 1.51 1.51 79 1012.6
20260905221104 88 219 1.7 2.6 0.00 1.51 1.51 78 1012.5
20260905220103 88 215 0.9 4.3 0.00 1.51 1.51 76 1012.7
20260905215104 88 215 1.7 5.2 0.00 1.51 1.51 75 1012.7
20260905213104 88 211 1.7 2.6 0.00 1.51 1.51 78 1012.9
20260905212104 87 209 1.7 4.3 0.00 1.51 1.51 79 1013.1
20260905211104 87 222 1.7 4.3 0.00 1.51 1.51 78 1013.1
20260905210104 87 231 3.5 6.1 0.00 1.51 1.51 81 1013.0
20260905205104 86 280 1.7 5.2 0.00 1.51 1.51 84 1012.9
20260905203104 84 211 1.7 4.3 0.01 1.51 1.51 87 1012.8
20260905202104 82 259 1.7 5.2 0.01 1.51 1.51 88 1013.0
20260905201104 80 123 2.6 4.3 0.28 1.51 1.51 89 1013.0
20260905200104 79 96 0.9 5.2 1.17 1.51 1.51 89 1013.2
20260905195104 78 112 1.7 5.2 1.51 1.51 1.51 88 1013.4
20260905194104 78 130 1.7 7.0 1.51 1.51 1.51 87 1013.5
20260905193104 79 123 2.6 8.7 1.50 1.50 1.50 86 1013.9
20260905192104 80 54 1.7 2.6 1.50 1.50 1.50 85 1014.3
20260905191104 81 327 1.7 17.4 1.23 1.23 1.23 84 1014.6
20260905190104 87 278 6.1 10.4 0.34 0.34 0.34 81 1014.4
20260905185104 89 337 4.3 11.3 0.00 0.00 0.00 75 1014.1
20260905184104 90 347 2.6 7.0 0.00 0.00 0.00 73 1014.1
20260905183104 92 345 1.7 12.2 0.00 0.00 0.00 71 1014.1
20260905181104 92 219 2.6 4.3 0.00 0.00 0.00 71 1014.2
20260905180104 90 32 0.9 1.7 0.00 0.00 0.00 74 1014.3
20260905175104 89 23 0.9 1.7 0.00 0.00 0.00 72 1014.5
20260905174105 89 24 0.9 2.6 0.00 0.00 0.00 72 1014.6
20260905173104 89 14 1.7 4.3 0.00 0.00 0.00 73 1014.5
20260905172104 90 35 0.9 5.2 0.00 0.00 0.00 74 1014.7
20260905171104 90 336 2.6 7.0 0.00 0.00 0.00 76 1014.7
20260905170105 89 13 0.9 4.3 0.00 0.00 0.00 75 1014.7
20260905165105 89 348 2.6 7.0 0.00 0.00 0.00 77 1014.8
20260905164105 88 309 0.9 2.6 0.00 0.00 0.00 76 1014.8
20260905163104 88 301 1.7 2.6 0.00 0.00 0.00 77 1015.0
20260905162105 89 308 1.7 2.6 0.00 0.00 0.00 76 1015.0
20260905160104 88 321 0.9 1.7 0.00 0.00 0.00 78 1015.0
20260905155104 88 321 0.9 2.6 0.00 0.00 0.00 76 1015.1
20260905154105 88 321 0.9 4.3 0.00 0.00 0.00 77 1015.1
20260905152104 87 310 0.9 2.6 0.00 0.00 0.00 82 1015.0
20260905151104 87 311 1.7 6.1 0.00 0.00 0.00 80 1015.1
20260905145105 86 284 1.7 2.6 0.00 0.00 0.00 83 1015.0
20260905143105 85 251 0.0 1.7 0.00 0.00 0.00 85 1015.1
20260905140105 83 74 0.0 1.7 0.00 0.01 0.00 93 1015.0
20260905134104 81 76 0.9 1.7 0.00 0.03 0.00 94 1014.9
20260905133104 80 75 1.7 2.6 0.00 0.03 0.00 94 1015.0
20260905132105 80 71 1.7 2.6 0.00 0.03 0.00 94 1014.9
20260905131104 80 67 1.7 2.6 0.00 0.03 0.00 94 1014.9
20260905125105 78 59 1.7 2.6 0.00 0.03 0.00 94 1014.7
20260905124105 78 59 1.7 2.6 0.00 0.03 0.00 94 1014.7
20260905123105 77 32 0.0 0.0 0.00 0.03 0.00 94 1014.6
20260905122105 76 32 0.0 0.0 0.00 0.03 0.00 94 1014.6
20260905121104 75 32 0.0 0.0 0.00 0.03 0.00 94 1014.5
20260905120105 75 32 0.0 0.0 0.00 0.03 0.00 93 1014.4
20260905115105 75 32 0.0 0.0 0.00 0.03 0.00 93 1014.4
20260905114105 75 32 0.0 0.0 0.00 0.03 0.00 93 1014.4
20260905113105 75 32 0.0 0.0 0.00 0.03 0.00 93 1014.3
20260905111105 75 32 0.0 0.0 0.00 0.03 0.00 93 1014.2
20260905105105 75 32 0.0 0.0 0.00 0.03 0.00 93 1014.0
20260905103104 75 34 0.0 0.0 0.00 0.03 0.00 93 1014.1
20260905101105 75 34 0.0 0.0 0.00 0.03 0.00 93 1014.1
20260905100105 75 34 0.0 0.0 0.00 0.03 0.00 93 1014.0
20260905095105 75 34 0.0 0.0 0.00 0.03 0.00 93 1014.0
20260905094105 75 34 0.0 0.0 0.00 0.03 0.00 93 1014.0
20260905093105 76 34 0.0 0.0 0.00 0.03 0.00 93 1014.0
20260905092105 76 34 0.0 0.0 0.00 0.03 0.00 93 1013.9
20260905090105 75 34 0.0 0.0 0.00 0.03 0.00 93 1013.9
20260905085105 76 33 0.0 0.0 0.00 0.03 0.00 93 1013.9
20260905084104 76 33 0.0 0.0 0.00 0.03 0.00 93 1013.8
20260905083105 75 34 0.0 0.0 0.00 0.03 0.00 93 1013.8
20260905082105 75 32 0.0 0.0 0.00 0.04 0.00 92 1013.8
20260905081105 75 32 0.0 0.0 0.00 0.04 0.00 92 1013.7
20260905080105 75 32 0.0 0.0 0.00 0.04 0.00 92 1013.6
20260905074105 75 32 0.0 0.0 0.00 0.04 0.00 92 1013.9
20260905073105 75 32 0.0 0.0 0.00 0.04 0.00 92 1013.8
20260905071105 75 32 0.0 0.0 0.00 0.04 0.00 92 1013.8
20260905070105 75 32 0.0 0.0 0.00 0.04 0.00 92 1013.7
20260905065105 76 32 0.0 0.0 0.00 0.04 0.00 92 1013.6
20260905064105 76 32 0.0 0.0 0.00 0.04 0.00 92 1013.5
20260905063105 76 30 0.0 0.0 0.00 0.04 0.00 92 1013.5
20260905062105 75 30 0.0 0.0 0.00 0.04 0.00 92 1013.5
20260905061106 76 30 0.0 0.0 0.00 0.04 0.00 92 1013.6
20260905055106 76 30 0.0 0.0 0.00 0.04 0.00 92 1013.6
20260905052106 76 30 0.0 0.0 0.00 0.04 0.00 91 1014.0
20260905050106 76 30 0.0 0.0 0.00 0.13 0.00 91 1014.2
20260905045105 76 30 0.0 0.0 0.00 0.16 0.13 91 1014.3
20260905044105 76 30 0.0 0.0 0.00 0.19 0.13 91 1014.3
20260905043105 77 30 0.0 0.0 0.00 0.21 0.13 91 1014.4
20260905042106 77 30 0.0 0.0 0.00 0.21 0.13 91 1014.6
20260905041105 77 30 0.0 0.0 0.00 0.21 0.13 91 1014.5
20260905040105 77 30 0.0 0.0 0.00 0.21 0.13 91 1014.6
20260905035105 77 30 0.0 0.0 0.00 0.21 0.13 91 1014.8
20260905034105 77 30 0.0 0.0 0.00 0.21 0.13 91 1014.9
20260905033105 77 30 0.0 0.0 0.00 0.21 0.13 90 1014.9
20260905032105 77 30 0.0 0.9 0.00 0.21 0.13 90 1015.0
20260905030105 78 28 0.9 2.6 0.00 0.21 0.13 90 1014.9
20260905025106 78 28 0.0 1.7 0.00 0.21 0.13 90 1015.0
20260905024106 78 28 0.0 1.7 0.00 0.21 0.13 90 1015.1
20260905023106 78 28 0.9 2.6 0.00 0.21 0.13 90 1015.0
20260905022106 78 27 0.9 1.7 0.00 0.21 0.13 90 1015.0
20260905020105 78 27 0.9 2.6 0.00 0.21 0.13 89 1015.0
20260905015106 79 27 0.9 1.7 0.00 0.21 0.13 89 1014.7
20260905014105 79 27 0.9 1.7 0.00 0.21 0.13 89 1014.4
20260905013106 79 27 0.9 1.7 0.00 0.21 0.13 89 1014.3